Вернуться в каталог

SL-16 DEB

АктивенLEO
NORAD 22297·DEBRIS·🇷🇺 Russia

Запущен Dec 25, 1992 с Baikonur Cosmodrome

Loading…

Ближайшие Пролёты (ближайшие 24 часа)

TLE

СвежийSource: Space-Track

Эпоха: Sep 13, 2026, 15:00 UTC

1 22297U 92093M   26256.62554667  .00000096  00000-0  82495-4 0  9994
2 22297  70.9497 346.1252 0097114 120.4022 240.6739 14.06362212725828

Отслеживайте SL-16 DEB в реальном времени с AllMySat

Download on the App Store